Wind_Speed
36 36 36 35 35 35 34 34 33 33 33 33 33 33 33 33 33 33 33 32 32 31 31 29 28 27 26 26 25 25 25 25 24 24 24 24 24 25 25 26 26 27 27 27 28 28 28 29 29 29 29 30 32 34 36 38 39 41 43 44 45 48 50 51 52 52 52 53 55 57 59 60 60 60 60 64 69 72 73 71 70 69 67 66 65 64
37 37 37 36 36 36 35 35 34 33 33 33 33 33 33 33 33 33 33 33 32 32 31 31 29 28 27 26 26 25 25 25 25 25 25 25 24 25 25 25 26 26 27 27 27 27 28 28 28 29 29 30 31 33 35 36 38 39 41 42 43 45 47 49 52 53 52 51 50 51 53 55 57 58 59 62 67 72 74 73 71 70 69 67 66 64
38 38 38 37 37 37 36 36 35 34 34 33 33 33 33 33 33 33 33 33 32 32 32 31 31 30 28 27 26 26 26 26 26 25 25 25 25 25 25 25 25 25 26 26 26 26 26 27 27 28 29 30 31 32 33 35 36 37 39 40 42 43 45 47 50 52 53 52 50 49 49 50 52 53 55 59 65 71 74 73 72 70 69 68 67 65
38 38 38 38 38 38 37 37 36 36 35 34 34 34 33 33 33 33 32 32 32 32 32 32 31 31 30 29 27 27 26 26 26 26 26 26 26 25 25 25 25 25 25 25 24 23 23 24 25 27 28 29 30 31 32 33 35 36 37 39 41 43 44 45 48 50 52 52 50 48 47 47 47 47 49 54 61 68 73 73 71 70 69 69 68 66
38 38 38 38 38 38 38 38 37 37 36 36 35 35 34 34 34 33 33 33 32 32 32 32 32 31 30 29 29 28 27 27 27 27 27 26 26 26 26 25 25 24 24 23 22 21 21 22 24 26 27 28 29 30 31 33 34 35 36 37 39 42 43 44 46 48 50 51 49 47 45 44 43 42 43 48 56 65 70 71 70 69 69 69 69 68
39 39 39 39 39 39 39 39 38 38 37 37 36 36 36 35 35 34 34 34 33 33 33 32 32 32 31 30 29 29 28 28 27 27 27 27 27 27 26 26 25 24 24 23 21 20 21 22 24 25 26 27 28 29 30 32 34 35 36 37 38 40 42 43 45 46 49 50 49 46 44 43 41 40 39 43 51 60 67 69 69 68 68 68 69 69
40 40 40 40 40 40 40 39 39 39 38 38 37 37 37 36 36 36 36 35 35 34 34 33 33 32 32 31 30 30 29 28 28 28 28 28 28 27 27 26 26 25 24 23 21 21 23 24 24 24 24 26 28 29 30 32 34 36 37 37 38 40 42 43 45 46 48 50 50 48 45 43 42 40 39 41 47 54 62 67 69 68 68 68 69 69
41 41 41 41 41 41 41 41 40 40 39 39 38 38 38 37 37 37 37 37 36 36 35 35 34 34 33 32 32 31 30 29 29 28 28 28 28 28 28 27 27 26 25 23 23 23 25 26 25 24 25 26 29 30 31 31 32 35 37 38 39 40 42 44 46 48 49 51 51 50 48 46 44 43 41 42 44 49 56 62 67 70 70 69 69 69
43 43 42 42 42 42 42 42 42 41 41 40 40 39 39 38 38 38 38 38 38 38 37 36 36 35 35 34 33 32 31 30 29 29 28 28 28 28 28 28 27 27 26 25 24 25 26 27 27 27 27 27 28 30 31 31 31 32 35 37 39 40 42 45 47 49 51 52 53 53 52 49 47 46 45 44 44 45 49 55 61 67 71 72 71 71
45 44 44 44 44 44 43 43 43 43 42 42 42 41 40 40 39 39 39 39 39 39 39 39 38 37 37 36 35 34 33 32 31 30 29 28 28 28 29 29 28 28 27 26 25 26 28 29 30 30 29 29 28 29 31 32 32 32 33 35 37 40 42 45 47 50 52 54 55 55 55 53 51 50 48 47 46 45 45 48 52 58 65 70 72 73
47 46 46 46 46 46 45 45 45 44 44 43 43 43 43 42 41 41 40 40 40 41 41 41 40 39 39 38 37 36 35 34 33 32 30 29 29 28 29 29 29 29 28 27 27 27 28 30 32 33 33 31 30 29 30 31 33 34 35 35 36 38 41 43 46 49 52 54 55 56 57 56 55 53 52 50 49 48 47 46 47 49 54 61 67 72
48 48 48 47 47 47 47 47 47 46 46 45 45 44 44 44 44 43 43 42 42 42 42 42 42 41 41 40 39 39 38 36 35 34 33 31 30 29 29 29 29 30 29 29 28 28 29 31 34 35 36 35 33 31 29 29 31 33 35 37 37 38 39 41 44 46 49 52 54 56 57 57 57 56 54 53 52 51 50 49 48 47 48 51 58 65
50 50 49 49 49 49 49 49 49 48 48 48 47 46 46 46 46 46 45 45 44 44 43 43 43 43 43 43 42 41 40 39 38 37 35 34 32 31 29 29 30 30 30 30 30 29 30 32 34 37 38 39 37 35 32 29 28 29 32 34 36 37 38 39 41 44 46 49 51 54 56 57 57 56 55 54 53 52 51 51 50 49 48 48 51 57
52 52 51 51 51 51 51 51 50 50 50 50 49 49 49 48 48 48 47 47 47 46 46 46 45 45 45 45 44 44 43 42 41 39 38 37 35 33 31 30 30 30 31 31 31 30 30 32 34 37 40 41 41 40 37 33 30 27 27 29 32 35 36 37 38 41 44 46 49 51 53 55 56 57 56 55 54 52 51 50 50 49 48 47 48 51
54 54 53 53 53 53 53 53 52 52 52 52 52 52 51 51 51 50 50 49 49 49 48 48 48 47 47 47 47 46 46 45 43 42 40 40 38 37 35 33 31 31 31 32 32 32 32 32 34 37 40 43 44 44 43 39 35 31 28 27 28 30 32 33 35 37 40 43 46 48 51 53 55 56 57 56 55 53 51 50 49 49 48 47 47 47
56 56 55 55 55 54 54 54 54 54 54 54 54 54 53 53 53 53 52 52 51 51 51 50 50 49 49 49 49 49 48 48 46 45 43 42 41 40 39 36 34 33 32 33 33 33 33 33 34 36 39 42 45 47 47 46 43 38 34 30 27 27 28 29 31 33 35 39 42 45 48 50 52 54 55 56 56 55 53 51 50 49 49 48 48 47
58 58 57 57 57 56 56 56 56 56 56 56 56 56 56 55 55 55 55 54 54 53 53 53 52 52 51 51 51 52 51 50 49 48 46 44 44 43 42 40 38 36 34 34 34 34 34 34 35 36 38 41 44 47 49 49 48 46 42 38 33 30 28 28 30 31 32 34 37 41 44 47 49 51 53 54 56 56 55 53 51 50 50 50 50 50
60 60 59 59 59 58 58 58 58 58 58 58 58 58 58 58 58 57 57 57 56 56 55 55 55 55 54 53 53 54 54 53 52 51 49 47 46 46 45 44 42 39 37 36 35 35 35 35 36 37 38 40 43 45 48 49 50 49 48 46 43 39 36 34 33 33 33 34 35 38 40 43 46 48 50 51 53 54 54 54 53 52 52 52 53 53
62 61 61 61 61 60 60 60 60 60 60 60 60 60 60 60 60 60 59 59 59 58 58 57 57 57 57 56 55 56 56 56 55 53 52 50 49 48 48 47 45 43 41 39 38 37 37 36 37 38 38 40 42 44 46 47 48 49 49 49 48 47 44 42 40 39 37 36 37 38 39 41 43 45 47 48 50 51 52 53 53 53 54 54 55 55
63 63 63 63 63 62 62 62 62 63 63 63 63 62 62 62 62 62 62 61 61 61 60 60 59 59 59 58 58 58 58 58 57 56 55 53 51 51 51 50 48 47 45 43 41 40 39 38 38 39 39 40 42 43 45 46 47 48 48 48 49 48 47 46 45 44 43 41 40 41 41 43 44 45 46 47 48 49 50 51 53 54 55 56 56 56
65 65 65 65 65 64 64 64 64 65 65 65 65 65 65 64 64 64 64 63 63 63 62 62 62 61 61 61 60 60 60 60 60 59 58 56 54 53 53 52 51 50 48 46 45 43 42 41 40 40 41 41 42 43 44 45 46 47 47 47 47 47 45 44 44 45 46 46 45 45 46 47 48 48 47 47 47 48 49 50 52 53 55 56 57 57
66 66 66 66 66 66 66 66 66 67 67 67 67 67 67 67 66 66 66 66 65 65 65 64 64 64 63 63 63 63 63 62 62 61 60 58 57 56 56 55 54 53 51 50 48 47 45 44 42 42 42 43 43 43 44 45 46 46 47 47 46 45 44 43 43 45 47 48 48 49 49 51 51 50 49 48 48 48 49 50 51 52 53 55 56 57
68 68 68 68 68 68 68 68 68 69 69 69 69 69 69 69 69 68 68 68 68 68 67 67 66 66 66 66 66 65 65 65 65 64 62 61 59 58 58 58 57 55 54 53 52 50 49 47 45 45 44 44 44 44 45 45 46 46 46 46 46 45 44 44 45 46 47 48 50 51 52 52 52 51 50 49 49 49 50 50 51 52 52 53 55 56
70 70 70 70 70 70 70 70 70 71 71 71 71 71 71 71 71 71 70 70 70 70 70 69 69 68 68 68 68 68 68 68 67 66 65 64 62 61 60 60 59 58 57 56 55 53 52 50 49 47 47 46 46 46 46 46 46 46 46 46 46 46 47 47 48 49 49 49 50 51 53 53 53 52 50 50 50 50 50 51 52 52 53 53 54 55
72 72 72 72 72 72 72 72 72 72 73 73 73 73 73 73 73 73 72 72 72 72 72 71 71 70 70 70 70 70 70 70 70 69 68 67 65 64 63 62 62 61 60 59 58 57 55 53 52 50 49 49 48 48 47 47 47 47 47 47 47 48 49 51 52 52 51 50 50 52 53 54 55 54 52 51 50 51 51 51 52 53 54 54 55 56
74 74 74 74 74 74 74 74 74 74 74 75 75 75 75 75 75 74 74 74 74 74 74 74 73 73 72 72 72 72 72 72 72 72 72 70 68 67 65 64 64 63 63 62 61 60 58 57 55 53 52 51 51 50 50 49 49 48 48 47 48 49 51 53 55 54 53 51 51 52 53 54 54 54 53 51 51 51 51 52 53 54 55 56 57 58
75 75 75 75 76 76 76 76 76 76 76 77 77 77 77 77 77 76 76 76 76 76 76 76 75 75 74 74 74 74 74 74 74 75 74 74 72 70 68 67 66 66 65 64 63 62 61 60 58 57 55 54 53 52 52 51 51 50 49 49 48 50 52 55 57 57 55 53 53 52 53 53 54 53 52 51 50 51 51 52 53 54 56 58 59 60
77 77 77 77 77 77 78 78 78 78 78 78 79 79 79 79 79 78 78 78 78 78 78 78 78 77 77 77 76 76 76 76 77 77 77 76 75 74 72 71 69 68 67 66 65 64 63 62 61 60 58 57 56 55 54 54 53 52 51 50 50 50 52 55 57 58 58 56 54 53 53 53 54 53 52 51 51 51 52 53 54 55 57 59 61 62
78 78 78 79 79 79 79 79 80 80 80 80 80 80 81 81 80 80 81 81 80 80 80 80 80 80 79 79 79 78 78 78 79 80 80 79 78 77 76 74 73 72 71 69 67 66 65 64 64 63 62 60 59 57 57 56 55 55 54 53 52 52 53 55 57 59 60 59 57 55 54 54 54 54 53 52 52 53 54 55 55 56 57 59 61 64
79 79 79 80 80 80 81 81 81 81 81 81 82 82 82 82 82 82 83 82 82 82 82 82 82 82 82 82 81 81 81 81 82 82 82 82 81 80 79 78 77 76 74 73 71 68 67 66 65 65 64 63 62 61 59 58 58 57 56 55 54 54 54 55 57 59 61 61 60 58 57 56 55 55 54 54 55 56 56 57 58 58 58 59 61 64
80 80 80 81 81 81 82 82 82 83 83 83 83 83 83 84 84 84 84 84 84 84 84 84 84 84 84 84 84 83 83 83 84 85 85 85 85 84 82 81 80 79 78 77 75 73 70 68 67 66 66 66 65 64 62 61 60 60 59 58 57 56 56 56 57 59 61 63 63 62 60 58 57 56 56 56 57 57 57 59 60 60 59 59 61 63
81 81 81 82 82 82 83 83 83 83 84 84 84 84 85 85 85 86 86 86 86 86 86 86 86 86 86 86 86 86 86 85 86 87 88 88 88 87 85 84 84 83 82 81 80 78 75 72 69 68 67 67 67 66 65 64 63 62 62 61 60 59 58 58 58 59 61 63 64 65 64 62 60 59 58 59 59 59 59 61 62 61 59 59 60 63
82 82 83 83 83 83 84 84 84 84 85 85 85 85 86 86 87 87 87 88 88 88 88 88 88 88 88 88 88 88 88 88 88 89 90 91 90 90 88 88 87 86 85 84 83 82 80 77 74 71 70 69 68 68 68 67 66 65 65 64 63 62 61 60 60 60 61 63 64 66 66 65 64 62 61 61 61 61 61 62 63 61 59 58 59 62
83 83 84 84 84 84 84 85 85 85 86 86 86 86 87 87 88 88 89 89 90 90 90 90 90 90 90 90 90 90 89 90 90 91 92 93 93 92 91 91 90 90 89 88 87 86 84 82 79 76 74 72 70 69 69 69 68 68 67 67 66 65 64 63 62 62 62 63 64 66 67 67 67 66 64 63 63 63 63 63 63 62 60 58 59 60
84 84 84 84 84 85 85 85 86 86 86 87 87 87 88 88 89 89 90 90 91 92 92 92 92 93 93 92 92 92 91 91 92 93 94 94 95 95 94 93 93 93 92 92 91 90 88 86 84 82 79 76 74 72 70 70 70 70 70 69 69 68 67 66 65 64 63 63 64 66 67 68 69 68 67 66 64 64 64 64 64 63 61 59 59 59
85 85 85 85 85 85 86 86 87 87 87 88 88 89 89 90 90 91 91 92 93 93 94 94 95 95 95 95 95 94 94 94 94 95 96 96 97 97 96 96 96 95 95 95 94 93 92 91 89 87 84 81 79 76 74 72 72 71 71 71 71 71 70 69 68 67 66 65 65 66 67 68 69 69 69 68 67 65 65 65 65 65 63 61 60 59
86 86 86 86 86 87 87 88 88 88 89 89 90 91 91 92 92 93 94 94 95 95 96 97 97 97 98 98 98 97 97 97 97 97 98 99 99 99 99 99 98 98 98 98 98 97 96 95 93 91 89 87 84 81 79 76 74 73 73 73 73 73 72 72 71 70 69 68 67 67 67 68 69 70 70 70 69 68 66 65 65 65 65 64 62 60
87 88 88 88 88 89 89 89 90 90 91 92 92 93 93 94 95 95 96 97 97 98 99 99 100 100 100 101 101 100 100 100 100 100 100 101 102 102 102 102 101 101 101 101 101 100 99 98 97 95 93 91 89 87 84 81 79 76 75 75 74 74 74 74 73 73 72 71 69 68 68 69 70 71 71 72 71 70 68 66 65 65 65 65 64 62
89 89 89 90 90 90 91 91 92 93 93 94 94 95 96 96 97 98 98 99 100 100 101 102 102 103 103 103 103 103 103 103 103 103 103 104 104 105 105 105 104 104 104 104 103 103 102 101 100 99 97 96 93 91 89 87 84 82 79 77 75 75 76 76 76 75 75 74 72 71 70 70 71 71 72 72 73 72 71 68 66 65 64 65 65 64
90 91 91 92 92 92 93 93 94 95 95 96 96 97 98 98 99 100 100 101 102 103 103 104 105 105 106 106 106 106 106 106 106 106 106 106 107 107 108 108 107 107 107 107 106 106 106 105 104 103 101 99 98 96 94 92 90 88 85 81 78 77 77 77 77 77 77 76 75 74 73 72 72 72 73 73 74 74 73 72 69 66 65 64 64 64
92 93 93 94 94 95 95 96 96 97 97 98 98 99 99 100 100 101 102 103 103 104 105 106 107 107 108 108 109 109 109 109 109 109 109 109 110 110 110 110 111 110 110 110 109 109 109 108 107 106 105 103 102 100 98 96 95 93 90 87 84 81 79 78 78 79 79 78 78 76 75 74 74 74 74 74 75 75 75 74 72 70 67 65 64 64
95 95 96 96 97 97 98 98 99 100 100 101 101 101 102 102 103 103 104 105 105 106 107 108 108 109 110 110 111 111 111 111 111 112 112 112 113 113 113 114 114 114 114 113 113 112 112 112 111 110 109 107 106 104 102 101 99 97 95 93 90 87 83 80 80 80 81 81 80 79 78 77 76 76 76 76 76 76 76 76 75 73 71 68 66 64
97 98 98 99 99 100 100 101 102 102 103 103 104 104 105 105 106 106 106 107 107 108 109 109 110 110 111 112 112 113 113 114 114 114 114 115 115 116 116 117 117 117 117 117 117 116 116 115 114 114 113 112 110 108 107 104 103 101 100 98 96 92 88 85 83 82 82 82 82 82 81 80 79 78 77 77 77 77 77 77 77 76 75 72 69 66
100 100 101 101 102 102 103 103 104 104 105 105 105 106 106 107 107 107 108 108 108 109 109 110 110 111 111 111 112 113 113 114 114 115 115 116 117 117 118 119 119 120 120 120 120 120 120 119 118 118 117 116 115 113 111 109 107 105 104 102 101 98 95 91 88 85 84 84 84 84 83 82 82 80 79 79 78 78 78 78 78 78 77 76 73 70
102 102 103 103 103 104 104 104 105 105 105 105 105 106 106 106 106 107 107 107 107 108 108 108 108 108 108 110 110 111 111 111 112 112 113 114 114 115 116 118 119 120 121 121 122 122 122 122 122 122 121 120 119 118 116 114 111 109 107 106 105 103 101 98 94 90 87 86 86 86 85 85 84 83 82 81 80 80 80 79 79 79 79 79 77 74
103 103 103 104 104 104 104 104 104 104 104 104 104 104 104 103 103 103 103 103 103 103 104 104 104 103 103 105 105 105 105 105 106 106 107 107 108 109 111 112 114 115 117 118 120 121 122 122 123 123 124 123 123 122 120 119 116 114 112 110 109 108 106 103 100 96 93 90 89 88 88 87 86 85 84 83 82 82 81 81 80 80 80 80 80 78
103 103 103 103 103 102 102 102 102 101 101 100 100 100 99 98 98 98 97 97 97 97 97 97 97 96 96 97 97 97 97 97 98 98 98 98 99 100 102 103 105 107 109 111 113 115 117 119 120 121 122 123 123 124 123 122 121 119 117 115 113 112 110 108 106 103 99 96 92 90 90 89 88 88 87 86 85 83 83 82 81 81 81 81 81 81
101 101 101 100 100 99 99 98 98 97 96 95 95 94 93 92 91 90 90 90 90 89 89 89 89 89 89 89 89 89 89 89 89 90 90 90 90 91 92 93 95 97 99 102 104 106 108 111 113 115 116 118 119 121 122 123 122 122 121 119 117 116 114 112 111 108 105 102 98 94 92 91 91 90 89 88 87 85 84 83 83 82 82 82 82 82
98 97 97 96 96 95 94 93 92 91 90 89 88 87 86 86 84 83 83 83 82 82 81 81 81 81 81 81 81 81 81 81 81 82 82 82 82 83 84 85 87 88 90 93 95 97 99 101 104 106 108 110 111 114 116 118 120 121 121 121 120 119 118 116 115 113 111 108 104 99 96 94 93 92 91 90 89 88 86 85 84 83 83 83 83 84
93 92 91 91 90 89 88 87 86 85 83 83 81 80 79 78 77 76 76 75 75 74 74 74 74 73 73 74 74 74 73 74 74 74 75 75 75 75 76 78 79 81 82 84 87 89 90 92 95 97 99 101 102 104 107 110 113 115 117 118 119 120 120 119 118 116 115 113 109 105 101 97 96 94 93 92 91 90 88 87 86 85 84 84 85 85
86 86 85 84 83 82 81 80 79 78 77 76 75 73 72 71 71 70 69 68 68 68 67 67 67 67 67 67 67 67 67 67 67 68 68 68 68 69 70 71 72 73 75 77 79 81 83 84 86 89 91 92 94 95 97 100 103 106 108 111 114 117 118 119 119 118 117 116 114 110 105 101 98 96 95 94 93 92 90 89 88 87 86 86 86 86
Wind_Direction
276 276 276 276 277 277 277 277 278 279 280 281 282 283 284 285 285 286 286 287 287 288 288 288 288 288 287 286 286 286 286 286 286 286 286 286 286 285 283 281 278 275 273 271 269 268 268 268 268 267 264 260 256 252 249 247 245 244 243 243 243 243 243 242 240 240 241 243 245 245 245 246 247 247 244 238 232 227 224 223 223 223 223 223 224 224
276 276 276 276 276 277 277 277 277 278 279 279 280 281 283 284 284 285 286 286 287 287 288 288 288 288 287 286 285 284 284 284 284 284 284 284 285 284 283 282 280 277 274 271 269 267 267 267 268 267 265 261 257 254 251 249 247 245 244 243 242 243 244 244 243 243 243 244 246 247 247 247 247 246 243 238 232 227 224 223 223 223 223 223 224 224
275 275 275 276 276 276 277 277 277 278 278 279 279 280 281 282 283 284 285 286 286 287 287 288 288 288 287 286 285 284 283 282 282 282 282 282 283 283 283 282 280 278 275 272 269 267 267 267 268 267 265 261 258 255 253 251 249 248 246 244 242 242 243 244 244 244 243 244 245 246 247 246 245 244 241 236 231 226 223 223 224 224 223 223 223 224
273 273 274 275 275 275 276 276 277 277 278 279 279 280 281 281 282 283 284 285 285 286 287 287 287 287 287 286 285 284 283 282 281 280 280 280 281 281 281 281 280 278 276 272 268 266 267 268 269 268 265 262 258 256 254 252 251 249 248 245 242 240 241 242 243 242 241 241 243 244 245 244 243 242 239 235 230 225 223 223 224 224 224 224 223 224
271 271 272 273 274 274 275 275 276 276 277 278 279 280 280 281 282 282 283 284 284 285 286 286 286 286 286 286 285 284 283 282 280 280 279 279 279 279 280 280 280 278 275 270 266 263 265 269 270 269 267 263 259 256 253 252 251 251 249 246 243 240 239 240 240 239 238 238 239 241 242 241 240 240 238 235 230 226 223 223 224 225 225 225 224 224
269 270 270 271 271 272 273 274 274 275 276 277 278 279 280 280 281 281 282 283 283 284 285 285 285 285 286 285 285 284 283 282 280 279 279 278 278 278 278 279 278 277 275 269 262 257 257 261 266 269 269 266 262 256 252 249 249 250 250 248 245 241 239 238 237 235 234 234 236 237 239 239 239 239 238 235 231 228 226 225 226 227 227 226 226 225
268 268 269 269 270 270 271 272 273 273 274 275 276 277 278 279 280 281 281 282 282 283 284 284 284 285 285 285 284 284 283 282 281 279 278 278 277 277 277 277 277 276 273 267 259 252 250 251 255 260 265 266 264 259 253 249 247 247 249 249 246 243 239 236 234 232 231 231 233 234 236 237 238 238 237 235 233 231 229 228 229 229 229 229 228 227
267 267 267 268 268 269 269 270 271 272 272 273 274 275 276 277 278 279 280 281 281 282 282 283 283 284 284 284 284 283 282 281 280 279 278 277 276 276 276 276 275 275 272 266 258 251 247 247 246 248 251 256 260 260 257 253 249 246 246 247 246 244 240 237 234 232 231 231 232 233 234 236 236 237 236 235 235 234 233 232 232 232 232 231 230 229
266 266 266 267 267 268 268 269 269 270 271 271 272 272 273 274 276 277 278 279 280 281 281 281 282 282 283 283 283 282 282 281 280 279 278 277 276 275 275 274 274 273 271 266 258 251 246 245 244 242 241 244 250 255 258 257 254 250 247 246 245 244 241 238 236 234 233 232 233 234 235 236 236 236 236 236 236 236 235 234 234 233 233 233 232 231
266 266 266 266 266 266 267 267 268 269 269 270 270 271 271 272 273 275 276 277 278 279 280 280 280 281 281 282 282 282 281 280 279 279 277 276 275 275 274 273 272 272 270 267 260 252 247 244 243 242 240 239 241 246 252 256 257 255 251 248 246 244 242 240 238 236 236 235 235 235 236 236 237 237 238 238 239 238 238 237 236 235 234 234 233 233
267 266 266 266 266 266 266 267 267 267 268 268 269 270 270 271 271 272 273 274 276 277 278 279 279 279 279 280 280 281 280 280 279 279 278 276 275 274 273 272 271 270 269 267 262 255 248 244 243 242 241 240 239 240 243 248 252 255 255 252 249 246 244 242 240 239 238 238 238 237 237 237 238 238 239 239 240 241 241 241 240 239 237 236 235 234
267 267 266 266 266 266 266 267 267 267 267 268 268 269 269 270 270 271 271 272 273 274 275 277 277 278 278 278 279 279 279 279 279 278 278 277 275 273 272 271 270 269 268 267 264 258 251 246 244 243 243 242 241 240 240 242 245 248 251 252 251 248 246 244 242 241 240 239 239 239 239 238 238 238 239 240 240 241 242 243 243 243 242 240 238 236
267 267 266 266 266 266 266 266 267 267 267 267 268 268 268 269 269 270 270 271 271 272 273 274 275 276 277 277 278 278 278 278 278 277 277 276 275 273 272 270 269 268 267 266 265 261 255 249 246 244 244 244 244 243 243 242 241 242 244 247 249 248 247 245 244 243 242 241 240 239 239 239 239 239 239 240 240 241 242 243 244 245 245 244 242 240
267 266 266 266 266 266 266 266 266 267 267 267 267 268 268 268 268 269 269 270 270 271 272 273 273 274 275 276 276 277 277 276 276 276 276 276 275 274 272 270 268 267 266 266 265 262 259 253 249 246 246 246 246 246 245 245 244 242 242 243 244 245 245 245 245 245 244 243 241 240 240 240 240 240 240 240 240 241 241 242 242 243 245 246 245 243
266 266 266 265 265 266 266 266 266 266 267 267 267 267 267 268 268 268 269 269 270 270 271 272 272 273 274 274 275 275 275 275 275 275 275 275 274 274 272 270 268 266 265 265 264 263 261 257 253 249 248 248 248 248 248 248 247 247 247 246 244 243 243 246 248 249 249 247 245 243 241 240 240 241 241 241 241 240 241 241 242 242 243 244 245 245
266 266 265 265 265 265 265 266 266 266 266 266 267 267 267 267 268 268 268 269 269 269 270 270 271 272 273 273 274 274 274 274 274 274 273 273 273 273 272 270 268 266 265 264 263 262 261 259 256 253 251 250 251 251 251 251 250 250 252 252 250 246 244 247 252 256 256 254 251 247 244 242 241 240 241 241 241 241 240 240 241 241 242 243 244 245
266 265 265 265 265 265 265 265 265 265 266 266 266 266 266 267 267 267 267 268 268 268 269 270 270 271 272 272 273 273 274 273 273 273 272 272 272 272 272 270 268 266 264 263 262 261 261 260 258 256 255 254 254 254 255 254 253 253 253 255 255 253 249 248 251 256 260 261 258 254 249 245 242 241 240 240 241 241 240 240 240 240 241 241 242 244
265 265 265 265 264 264 264 264 265 265 265 265 265 265 266 266 266 266 267 267 267 267 268 268 269 270 271 271 271 272 273 273 272 272 272 271 271 271 271 270 269 267 265 263 262 261 260 259 258 257 257 256 256 257 258 258 258 257 256 256 256 256 255 253 252 253 255 258 259 257 254 250 246 243 241 240 240 240 240 239 239 239 239 240 241 243
265 265 265 264 264 264 264 264 264 264 264 264 264 265 265 265 265 265 266 266 266 267 267 267 268 268 269 270 270 271 271 271 271 271 271 270 270 270 270 270 269 267 265 264 262 261 260 259 258 258 257 257 257 258 260 261 261 260 259 258 258 258 257 256 255 254 252 252 253 254 254 253 250 246 243 241 240 240 239 238 237 237 237 239 240 242
264 264 264 264 264 264 264 264 264 264 264 264 264 264 264 264 264 264 265 265 265 266 266 266 266 267 267 268 269 269 270 270 270 270 270 270 269 269 269 269 268 267 266 264 263 261 259 258 258 257 257 256 256 257 259 261 262 262 262 261 260 258 257 256 255 255 253 251 249 249 251 252 252 250 247 244 242 240 239 238 237 236 236 237 239 241
264 264 264 264 264 264 263 263 263 263 263 263 263 263 263 263 263 263 264 264 264 265 265 265 265 266 266 266 267 267 268 268 268 269 269 269 269 268 268 268 267 267 266 265 263 262 260 258 257 257 256 256 255 256 257 258 260 262 262 262 261 259 256 254 254 254 254 253 250 248 249 251 252 253 251 248 245 241 239 237 237 236 236 237 238 239
265 265 264 264 264 264 263 263 263 263 263 263 263 263 263 263 263 263 263 263 263 263 263 264 264 264 265 265 265 266 266 267 267 267 268 268 267 267 267 267 267 266 265 264 263 262 260 259 257 256 256 256 255 255 255 256 257 259 260 261 260 257 253 249 248 250 251 252 251 250 250 251 253 254 253 251 248 244 241 238 237 237 237 237 237 237
266 266 265 265 265 264 264 263 263 263 263 263 263 263 262 262 262 262 262 262 263 263 263 263 263 263 263 264 264 264 265 265 265 266 266 266 266 265 266 266 265 265 264 264 263 262 261 259 257 256 256 255 255 255 255 254 255 256 257 258 257 254 249 244 242 243 245 247 249 249 250 251 252 253 253 252 250 247 244 241 238 237 236 236 236 236
267 267 267 266 266 265 265 265 264 264 263 263 263 263 263 262 262 262 262 262 262 262 262 262 262 262 262 262 263 263 263 263 264 264 264 264 264 264 264 264 264 264 263 263 263 262 261 259 258 256 255 255 255 255 254 254 254 254 255 255 254 251 247 242 240 239 240 241 243 246 248 249 251 252 252 252 251 249 246 243 240 238 236 235 234 234
268 268 267 267 267 266 266 266 265 265 264 264 264 263 263 263 262 262 262 262 262 262 262 262 262 262 261 261 261 262 262 262 262 263 262 262 262 262 262 262 262 262 262 262 262 262 261 259 258 257 255 255 254 254 254 254 254 253 253 253 251 249 246 243 241 240 239 238 239 241 245 247 249 251 252 252 251 250 248 245 242 239 237 235 233 232
268 268 268 267 267 267 267 267 266 266 266 265 265 265 264 264 263 263 263 263 262 262 262 262 262 262 261 261 261 261 261 261 261 261 261 261 260 260 259 260 260 260 261 261 261 261 260 259 258 257 255 254 254 254 254 254 253 253 252 251 250 248 246 244 243 243 241 239 237 238 241 244 247 249 251 252 252 251 249 246 244 241 238 235 233 231
269 268 268 268 268 267 267 267 267 266 266 266 266 265 265 265 264 264 263 263 263 263 263 262 262 262 261 261 261 261 261 261 261 261 260 260 259 259 258 257 258 258 258 259 259 259 259 258 258 257 255 254 253 253 253 253 253 253 252 251 249 247 246 246 246 245 244 241 238 237 237 240 243 246 249 250 250 249 249 247 245 242 239 236 234 231
269 269 269 268 268 268 267 267 267 267 267 266 266 266 266 265 265 265 264 263 263 263 263 262 262 262 261 261 261 261 261 261 261 261 260 260 259 258 257 256 256 256 256 256 257 257 257 257 257 256 255 254 253 252 252 252 252 252 251 251 249 247 246 246 247 247 246 244 241 238 236 236 238 241 244 245 244 244 245 246 245 244 241 238 236 233
270 270 270 269 269 268 268 268 267 267 267 266 266 266 266 266 266 265 264 264 263 263 263 262 262 262 261 261 261 261 261 261 261 261 261 260 260 259 258 257 256 255 255 254 254 254 255 256 256 256 255 254 253 252 251 251 251 251 251 250 249 247 246 245 246 247 248 247 245 241 238 236 236 237 239 239 238 238 239 241 244 245 243 240 238 236
271 270 270 270 269 269 269 268 268 267 267 267 266 266 266 266 266 265 265 264 264 263 263 263 262 262 261 261 260 260 260 261 261 261 261 261 260 259 258 257 256 255 254 253 252 252 251 252 253 254 254 254 253 252 251 250 250 250 250 250 249 248 246 245 245 246 247 247 247 245 241 238 236 236 236 235 234 234 234 238 242 244 244 242 240 238
270 270 270 270 270 269 269 268 268 268 267 267 266 266 266 266 265 265 265 264 264 264 263 263 262 262 262 261 261 260 260 260 260 260 261 261 260 260 259 258 257 256 255 254 253 251 249 249 250 251 252 253 252 251 250 250 249 249 249 249 248 248 247 245 245 245 245 247 247 247 244 241 238 236 234 233 232 232 233 236 240 244 245 243 241 240
270 270 270 270 269 269 269 268 268 267 267 267 266 266 266 265 265 265 264 264 264 263 263 263 262 262 262 261 261 260 260 259 259 260 260 260 260 259 259 258 258 257 256 255 254 252 250 248 247 247 249 250 251 251 250 249 248 248 248 248 248 247 247 246 245 244 244 245 246 247 246 244 241 238 235 233 231 231 232 235 240 243 245 244 242 241
271 271 270 270 269 269 268 268 268 267 267 266 266 266 266 265 265 265 264 264 264 263 263 262 262 262 261 261 261 260 260 260 259 259 259 260 260 259 259 258 258 257 256 256 255 253 252 249 247 245 245 247 248 249 249 249 248 247 247 247 247 247 246 246 245 244 244 244 245 246 246 246 244 241 238 234 232 231 231 234 239 243 245 244 242 241
272 271 271 270 270 269 269 268 268 267 267 266 266 266 265 265 265 265 264 264 264 263 263 263 262 262 261 261 260 260 260 260 260 259 259 260 259 259 258 258 258 257 257 256 255 254 253 251 249 246 244 244 245 246 248 248 248 247 247 246 246 246 246 246 245 244 244 243 244 245 245 246 245 244 241 237 234 232 232 234 237 241 243 243 242 241
273 272 272 271 271 270 270 269 268 268 267 267 266 266 265 265 265 265 264 264 264 264 263 263 262 262 261 261 260 260 259 259 259 259 259 260 259 259 258 258 257 257 257 256 255 255 254 253 251 249 246 244 242 243 244 246 246 247 246 246 246 246 246 245 245 244 244 243 243 244 244 245 245 245 243 240 237 234 232 232 234 237 239 241 241 241
273 273 272 272 271 271 270 270 269 269 268 268 267 267 266 266 265 265 265 265 264 264 264 263 263 262 262 261 260 260 259 258 258 258 259 259 259 259 259 258 257 257 257 256 256 255 254 253 252 250 248 246 243 242 241 242 244 245 245 245 245 245 245 245 245 244 244 243 243 243 244 244 245 245 244 243 240 237 233 232 231 232 234 235 237 239
274 273 273 272 272 271 271 270 270 270 269 269 268 268 267 267 267 266 266 266 265 265 265 264 264 263 262 262 261 260 259 259 258 258 258 258 259 259 258 258 257 257 257 257 256 255 254 254 253 251 250 248 246 243 241 240 241 242 244 244 245 245 245 245 244 244 244 243 243 243 243 244 244 244 244 243 242 239 236 233 231 230 230 231 232 234
274 274 274 273 273 272 272 271 271 271 270 270 269 269 269 268 268 267 267 267 266 266 266 265 265 264 263 263 262 261 260 260 259 259 259 259 258 258 258 258 257 257 257 257 256 256 255 254 253 252 251 249 248 246 244 241 240 240 241 242 243 244 244 244 244 244 243 243 242 242 242 243 243 244 244 244 243 241 239 235 232 229 228 227 227 229
275 275 274 274 273 273 273 273 272 272 271 271 271 270 270 270 269 269 269 268 268 267 267 266 266 265 265 264 263 262 262 261 260 260 259 259 259 259 258 258 258 257 256 256 256 256 255 255 254 253 251 250 249 248 246 244 242 240 239 240 241 243 243 243 243 243 243 243 242 242 242 242 243 243 243 243 243 242 240 237 234 231 228 226 225 225
275 275 275 274 274 274 274 273 273 273 272 272 272 271 271 271 271 270 270 270 269 269 268 268 267 267 266 265 265 264 263 262 262 261 260 260 260 259 259 259 258 257 257 256 256 256 255 255 254 253 252 251 250 249 247 246 245 243 240 239 239 240 242 242 243 243 243 242 242 242 241 241 242 242 243 243 243 242 241 239 236 233 230 227 225 224
277 276 276 276 275 275 275 274 274 274 273 273 273 273 272 272 272 272 271 271 270 270 270 269 268 268 267 267 266 265 265 264 263 262 262 261 261 260 260 259 259 258 258 257 256 256 255 255 254 254 253 252 251 249 248 247 246 245 243 241 239 238 239 241 242 242 242 242 241 241 241 240 240 241 242 242 242 242 242 241 238 235 232 229 226 225
279 278 278 277 277 277 276 276 276 275 275 275 274 274 274 274 273 273 273 272 272 271 271 270 270 269 269 268 267 267 266 265 265 264 263 263 262 261 261 260 260 259 258 258 257 256 256 255 255 254 253 252 251 250 249 248 247 246 245 243 241 239 238 239 240 241 242 241 241 241 240 240 240 240 240 241 242 242 242 241 240 238 235 231 228 226
281 280 280 280 279 279 278 278 278 278 277 277 277 276 276 275 275 275 274 274 273 273 272 272 271 271 270 269 269 268 267 267 266 265 265 264 263 262 262 261 260 260 259 259 258 257 256 256 255 255 254 253 252 251 250 248 247 246 246 245 243 241 239 238 238 239 240 241 241 240 240 239 239 239 239 240 240 241 242 242 241 240 237 234 231 228
283 282 282 282 282 281 281 281 280 280 280 279 279 278 278 277 277 277 276 275 275 274 273 273 272 272 271 270 270 269 268 268 267 266 266 265 264 263 262 262 261 260 260 259 259 258 257 256 256 255 254 254 253 252 251 249 248 247 246 246 245 244 242 239 238 238 239 240 240 240 239 239 238 238 238 238 239 240 241 241 241 241 239 237 234 231
285 284 284 284 284 283 283 283 282 282 281 281 281 280 280 279 279 278 277 277 276 275 274 274 273 272 272 271 270 269 269 268 267 267 266 265 264 264 263 262 261 260 260 259 258 258 257 257 256 255 255 254 254 253 252 250 249 248 247 246 246 245 244 241 239 238 238 239 239 239 239 238 238 237 237 237 238 238 239 240 241 241 241 239 237 234
286 286 286 285 285 285 284 284 283 283 283 282 282 281 281 280 279 279 278 277 276 276 275 274 273 273 272 271 270 269 269 268 267 266 266 265 264 264 263 262 261 260 259 259 258 257 257 256 256 255 254 254 253 253 252 251 250 249 247 246 246 246 245 244 242 240 239 238 238 238 238 238 238 237 237 236 236 237 238 239 240 240 241 241 239 237
287 286 286 286 285 285 285 284 284 283 283 282 282 281 281 280 279 279 278 277 276 276 275 274 274 273 272 271 270 270 269 268 267 266 265 265 264 263 263 262 261 260 259 258 258 257 256 255 255 254 254 253 253 252 252 251 250 249 248 247 246 246 245 245 244 242 240 239 238 237 237 238 237 237 236 236 235 236 236 237 238 239 240 241 241 240
287 286 286 286 285 285 284 284 284 283 282 282 281 281 280 280 279 278 278 277 276 276 275 274 273 273 272 271 270 270 269 268 267 266 265 264 264 263 262 262 261 260 259 258 258 257 256 255 254 254 253 253 252 251 251 250 250 249 248 247 246 246 245 245 244 243 242 240 239 237 237 237 237 236 236 235 235 234 235 235 236 237 238 239 240 241
286 286 285 285 285 284 284 283 283 282 282 281 281 280 280 279 278 278 277 277 276 275 275 274 273 273 272 271 271 270 269 268 267 266 266 265 264 263 262 262 261 261 260 259 258 257 256 255 254 253 253 252 252 251 250 249 249 248 248 247 246 245 245 244 244 244 243 242 241 238 237 236 236 236 235 235 234 234 234 234 235 235 236 238 239 240
285 285 285 284 284 284 283 283 282 282 281 281 280 279 279 278 278 278 277 276 276 275 275 274 273 273 272 272 271 270 270 269 268 267 266 265 264 263 263 262 262 261 260 260 259 258 257 256 255 254 253 252 252 251 250 249 248 247 246 246 245 244 244 243 243 243 243 243 242 240 238 236 235 235 235 234 234 233 233 233 233 234 235 236 237 239
284 284 284 283 283 283 283 282 282 281 281 280 280 279 279 278 278 277 277 276 276 275 275 274 274 273 273 272 271 271 270 269 269 268 267 266 265 264 263 262 262 261 261 260 260 259 258 257 256 254 253 252 252 251 251 249 248 247 246 245 244 243 243 242 242 242 242 243 242 241 239 237 235 234 234 233 233 233 232 232 232 233 234 234 235 237
Height
5711 5711 5711 5711 5711 5711 5711 5711 5711 5711 5710 5710 5710 5709 5709 5709 5709 5709 5709 5709 5709 5709 5708 5708 5708 5708 5708 5708 5708 5708 5708 5707 5707 5707 5706 5706 5706 5706 5705 5705 5705 5706 5706 5706 5706 5707 5707 5707 5708 5709 5709 5709 5710 5711 5711 5712 5713 5714 5716 5718 5721 5723 5726 5729 5733 5736 5736 5736 5734 5735 5737 5739 5741 5743 5745 5747 5750 5752 5755 5757 5759 5761 5762 5765 5767 5769
5707 5707 5707 5707 5707 5707 5707 5708 5708 5708 5708 5707 5707 5707 5706 5706 5706 5706 5706 5706 5706 5706 5706 5706 5706 5706 5706 5706 5706 5706 5706 5706 5705 5705 5705 5704 5704 5704 5703 5703 5703 5703 5703 5704 5704 5704 5705 5705 5706 5706 5706 5706 5707 5707 5708 5708 5710 5711 5713 5715 5717 5720 5723 5726 5729 5731 5733 5734 5734 5734 5735 5735 5736 5737 5739 5741 5744 5747 5750 5752 5755 5756 5758 5761 5763 5765
5705 5704 5704 5704 5704 5704 5704 5704 5705 5705 5705 5705 5704 5704 5704 5704 5703 5703 5703 5703 5703 5703 5703 5703 5703 5703 5704 5704 5704 5704 5704 5704 5703 5703 5703 5702 5702 5702 5701 5701 5701 5701 5701 5701 5701 5702 5702 5703 5703 5703 5704 5704 5704 5704 5705 5705 5706 5708 5710 5711 5714 5717 5721 5723 5726 5728 5730 5731 5731 5732 5733 5734 5733 5733 5734 5736 5739 5742 5745 5748 5751 5752 5754 5756 5759 5761
5702 5702 5701 5701 5701 5701 5701 5701 5701 5701 5701 5701 5701 5701 5701 5701 5701 5701 5701 5701 5701 5701 5701 5701 5701 5701 5701 5701 5701 5701 5701 5701 5701 5701 5701 5701 5700 5700 5700 5699 5699 5699 5699 5699 5699 5700 5700 5700 5701 5701 5701 5701 5701 5702 5702 5703 5703 5705 5706 5708 5711 5714 5718 5720 5723 5725 5727 5729 5730 5730 5730 5731 5731 5731 5731 5733 5735 5738 5741 5745 5747 5749 5751 5753 5755 5757
5700 5699 5699 5698 5698 5698 5698 5698 5698 5698 5698 5698 5698 5698 5698 5698 5698 5698 5697 5698 5698 5698 5698 5698 5698 5698 5698 5699 5699 5699 5699 5699 5699 5699 5699 5699 5698 5698 5698 5697 5697 5697 5697 5697 5697 5697 5697 5698 5699 5699 5700 5700 5700 5700 5701 5701 5701 5702 5703 5705 5708 5711 5714 5717 5720 5722 5724 5728 5729 5728 5728 5729 5730 5730 5729 5730 5733 5736 5739 5741 5744 5746 5747 5749 5751 5753
5696 5696 5696 5696 5695 5695 5695 5695 5695 5695 5695 5695 5695 5695 5695 5695 5695 5695 5695 5695 5695 5695 5695 5695 5695 5695 5696 5696 5696 5696 5696 5696 5697 5697 5697 5697 5696 5696 5696 5696 5695 5695 5695 5695 5695 5695 5695 5696 5696 5697 5698 5698 5699 5699 5699 5700 5701 5700 5701 5702 5704 5706 5710 5713 5717 5720 5722 5725 5726 5727 5727 5727 5727 5728 5727 5729 5731 5734 5737 5739 5741 5743 5745 5746 5748 5750
5693 5693 5692 5692 5692 5692 5692 5691 5691 5692 5692 5692 5692 5692 5692 5692 5691 5691 5691 5691 5691 5692 5692 5692 5692 5692 5693 5693 5693 5694 5694 5694 5694 5694 5694 5694 5694 5694 5694 5694 5693 5693 5693 5693 5693 5693 5693 5693 5693 5695 5696 5697 5697 5697 5698 5699 5699 5700 5700 5700 5701 5703 5705 5709 5713 5717 5719 5721 5723 5725 5726 5726 5726 5726 5726 5727 5729 5732 5735 5737 5739 5740 5741 5743 5745 5747
5690 5690 5689 5689 5689 5689 5689 5688 5688 5688 5689 5689 5689 5689 5689 5689 5689 5688 5688 5688 5688 5689 5689 5689 5689 5689 5689 5690 5691 5691 5691 5691 5691 5692 5692 5692 5692 5692 5692 5692 5691 5691 5691 5691 5691 5691 5691 5691 5691 5691 5693 5694 5695 5695 5695 5696 5697 5698 5699 5699 5700 5701 5702 5704 5707 5711 5715 5718 5720 5722 5723 5724 5725 5726 5725 5725 5726 5729 5731 5733 5735 5737 5738 5740 5741 5743
5686 5686 5686 5686 5686 5686 5686 5685 5685 5685 5685 5686 5686 5686 5686 5686 5686 5686 5685 5685 5685 5685 5686 5686 5686 5686 5686 5686 5687 5688 5688 5688 5689 5689 5689 5690 5690 5690 5690 5690 5689 5689 5689 5689 5689 5689 5689 5689 5689 5689 5689 5690 5691 5693 5692 5692 5693 5694 5696 5696 5697 5698 5700 5701 5703 5705 5708 5712 5716 5718 5720 5721 5722 5724 5724 5723 5724 5726 5727 5730 5731 5733 5734 5736 5738 5740
5682 5682 5682 5682 5682 5682 5682 5682 5682 5682 5682 5682 5682 5682 5683 5683 5683 5683 5683 5682 5682 5682 5682 5682 5682 5683 5683 5683 5684 5684 5685 5685 5686 5686 5686 5687 5687 5687 5687 5687 5687 5687 5687 5687 5687 5686 5686 5686 5686 5686 5686 5686 5686 5688 5690 5690 5690 5690 5691 5693 5694 5695 5696 5698 5699 5701 5702 5706 5709 5713 5716 5717 5719 5721 5722 5722 5722 5723 5724 5726 5726 5728 5730 5731 5733 5735
5677 5678 5678 5678 5678 5678 5678 5678 5678 5678 5678 5678 5678 5679 5679 5680 5680 5680 5680 5680 5679 5679 5679 5679 5679 5679 5680 5680 5680 5681 5681 5681 5682 5683 5683 5684 5685 5685 5685 5685 5685 5685 5685 5685 5685 5684 5684 5684 5684 5684 5684 5683 5683 5683 5685 5687 5688 5687 5687 5688 5690 5691 5692 5693 5695 5696 5698 5700 5702 5706 5709 5712 5715 5717 5718 5719 5720 5720 5720 5721 5721 5723 5726 5728 5730 5731
5673 5673 5674 5674 5674 5674 5674 5674 5674 5674 5674 5675 5675 5675 5676 5676 5676 5676 5676 5676 5676 5676 5676 5676 5675 5675 5676 5676 5677 5677 5678 5678 5678 5679 5680 5681 5681 5682 5682 5682 5682 5682 5682 5682 5682 5682 5682 5682 5681 5681 5681 5681 5681 5680 5680 5682 5684 5686 5686 5686 5686 5686 5688 5689 5690 5692 5694 5696 5698 5700 5702 5706 5709 5711 5713 5715 5716 5717 5718 5717 5718 5720 5722 5725 5726 5727
5668 5669 5669 5669 5669 5669 5669 5670 5670 5670 5671 5671 5671 5671 5671 5672 5672 5672 5672 5673 5673 5673 5673 5673 5672 5672 5672 5672 5673 5673 5674 5674 5675 5676 5676 5677 5678 5678 5679 5680 5680 5679 5679 5679 5680 5680 5679 5679 5679 5679 5678 5678 5678 5678 5678 5677 5678 5680 5683 5685 5684 5684 5684 5686 5687 5688 5690 5691 5693 5695 5697 5699 5702 5705 5707 5710 5712 5714 5716 5716 5717 5717 5718 5720 5721 5723
5664 5664 5664 5664 5665 5665 5665 5665 5666 5666 5666 5666 5667 5667 5667 5667 5668 5668 5668 5669 5669 5670 5670 5670 5669 5669 5668 5668 5669 5669 5670 5671 5671 5672 5672 5673 5674 5675 5676 5676 5677 5677 5677 5677 5677 5677 5677 5677 5676 5676 5676 5676 5675 5675 5675 5675 5675 5675 5677 5680 5682 5682 5682 5682 5684 5685 5686 5687 5689 5691 5693 5695 5696 5699 5701 5704 5707 5710 5711 5713 5715 5716 5717 5717 5718 5719
5659 5659 5659 5660 5660 5660 5660 5661 5661 5661 5661 5662 5662 5662 5663 5663 5663 5664 5664 5665 5665 5666 5666 5666 5666 5666 5665 5665 5664 5665 5666 5666 5667 5668 5669 5669 5670 5671 5672 5673 5674 5674 5674 5674 5674 5674 5674 5674 5674 5674 5673 5673 5672 5672 5672 5672 5672 5672 5673 5674 5676 5679 5681 5681 5681 5681 5682 5683 5685 5686 5688 5690 5692 5694 5696 5699 5701 5704 5707 5710 5712 5714 5715 5715 5716 5716
5654 5654 5654 5655 5655 5655 5656 5656 5656 5656 5657 5657 5657 5658 5658 5658 5659 5659 5660 5660 5661 5662 5662 5662 5662 5662 5662 5661 5661 5660 5661 5662 5663 5665 5666 5666 5666 5666 5667 5669 5670 5671 5671 5671 5671 5671 5671 5671 5671 5671 5671 5670 5670 5669 5669 5669 5669 5670 5670 5671 5671 5673 5676 5678 5678 5678 5679 5680 5681 5682 5684 5686 5687 5689 5691 5694 5696 5699 5701 5705 5707 5709 5711 5712 5713 5713
5649 5649 5649 5650 5650 5651 5651 5651 5651 5651 5651 5652 5652 5653 5653 5654 5654 5655 5655 5656 5656 5657 5657 5658 5658 5658 5658 5658 5657 5656 5656 5657 5659 5660 5662 5662 5662 5662 5662 5664 5666 5667 5668 5668 5668 5668 5668 5669 5668 5668 5668 5667 5667 5666 5666 5666 5666 5667 5668 5668 5669 5670 5671 5674 5676 5676 5676 5677 5678 5679 5680 5681 5683 5685 5687 5689 5691 5693 5696 5699 5701 5704 5706 5708 5710 5710
5644 5644 5644 5645 5645 5646 5646 5646 5646 5646 5646 5647 5647 5648 5648 5648 5649 5649 5650 5651 5651 5652 5652 5653 5653 5654 5654 5654 5653 5652 5652 5652 5654 5656 5657 5658 5658 5658 5658 5659 5661 5663 5664 5664 5665 5665 5665 5666 5666 5666 5665 5665 5664 5663 5663 5662 5663 5664 5665 5666 5666 5667 5668 5670 5671 5672 5674 5675 5676 5676 5676 5677 5679 5681 5682 5684 5686 5688 5690 5693 5696 5699 5701 5703 5705 5706
5639 5639 5639 5639 5640 5641 5641 5641 5641 5641 5641 5642 5642 5643 5643 5643 5644 5644 5645 5646 5646 5647 5647 5648 5649 5649 5650 5650 5650 5649 5648 5647 5648 5651 5653 5654 5655 5654 5654 5654 5656 5658 5659 5660 5661 5661 5662 5662 5662 5662 5662 5662 5661 5661 5660 5660 5660 5660 5661 5662 5663 5664 5665 5667 5668 5669 5670 5672 5673 5674 5674 5674 5675 5676 5678 5680 5681 5683 5685 5688 5691 5694 5696 5698 5700 5700
5634 5634 5634 5634 5635 5636 5636 5636 5636 5636 5636 5636 5637 5637 5638 5638 5639 5639 5640 5640 5641 5642 5642 5643 5644 5644 5645 5646 5645 5645 5644 5643 5644 5645 5647 5649 5650 5650 5650 5650 5651 5653 5655 5656 5656 5657 5658 5659 5659 5659 5659 5659 5658 5658 5657 5657 5657 5657 5658 5659 5660 5661 5661 5662 5664 5665 5666 5668 5669 5670 5671 5671 5671 5672 5674 5676 5677 5679 5681 5683 5685 5688 5691 5693 5695 5695
5628 5629 5629 5629 5630 5630 5630 5631 5631 5630 5630 5630 5631 5631 5632 5633 5633 5634 5634 5635 5636 5636 5637 5638 5638 5639 5641 5641 5641 5640 5639 5639 5639 5640 5642 5644 5646 5646 5645 5645 5646 5648 5650 5651 5651 5652 5653 5655 5655 5655 5655 5655 5655 5655 5655 5655 5654 5654 5655 5655 5656 5657 5658 5659 5659 5661 5662 5663 5664 5666 5667 5667 5667 5668 5670 5671 5673 5675 5676 5678 5680 5682 5684 5686 5689 5691
5623 5623 5623 5623 5624 5624 5624 5625 5625 5625 5624 5624 5625 5625 5626 5627 5627 5628 5629 5630 5630 5631 5631 5632 5633 5634 5635 5635 5635 5635 5635 5634 5634 5635 5637 5639 5641 5641 5641 5640 5641 5642 5644 5645 5646 5647 5648 5650 5651 5651 5651 5651 5651 5651 5652 5652 5652 5652 5652 5652 5652 5653 5654 5655 5656 5657 5659 5659 5660 5661 5662 5662 5663 5664 5666 5667 5669 5670 5672 5673 5675 5677 5679 5681 5683 5686
5616 5616 5617 5617 5617 5617 5618 5618 5619 5618 5618 5618 5618 5619 5619 5621 5621 5622 5623 5624 5624 5625 5625 5626 5627 5628 5629 5629 5629 5629 5630 5629 5629 5630 5632 5633 5635 5636 5636 5635 5636 5637 5639 5640 5641 5642 5643 5645 5646 5646 5647 5647 5647 5648 5648 5648 5649 5649 5649 5649 5649 5650 5650 5651 5651 5653 5654 5656 5657 5658 5658 5658 5659 5659 5660 5662 5664 5666 5667 5669 5671 5672 5674 5676 5677 5680
5609 5610 5610 5611 5611 5611 5611 5612 5612 5612 5612 5612 5612 5612 5613 5613 5614 5615 5616 5617 5617 5618 5618 5620 5621 5622 5623 5624 5624 5624 5624 5623 5623 5624 5626 5627 5630 5631 5632 5631 5631 5631 5633 5635 5636 5636 5638 5639 5641 5641 5642 5642 5643 5643 5644 5644 5645 5645 5646 5646 5646 5646 5646 5646 5647 5648 5649 5651 5653 5655 5655 5655 5654 5655 5656 5657 5659 5661 5663 5664 5666 5668 5669 5671 5672 5674
5602 5603 5604 5604 5604 5604 5605 5605 5605 5605 5606 5606 5606 5606 5606 5606 5607 5608 5610 5610 5610 5611 5611 5613 5615 5616 5617 5618 5618 5618 5618 5618 5617 5618 5619 5621 5624 5626 5627 5626 5625 5626 5627 5629 5630 5631 5632 5634 5635 5636 5637 5637 5638 5639 5639 5640 5641 5641 5641 5642 5642 5642 5642 5642 5643 5644 5645 5646 5647 5649 5651 5651 5651 5651 5651 5652 5654 5656 5658 5659 5661 5663 5665 5666 5668 5669
5596 5596 5597 5597 5597 5597 5598 5598 5598 5598 5599 5598 5598 5598 5599 5599 5601 5602 5603 5603 5603 5603 5605 5606 5607 5609 5610 5611 5612 5612 5612 5612 5611 5611 5612 5613 5616 5620 5622 5621 5620 5620 5621 5624 5625 5626 5626 5628 5630 5631 5631 5632 5633 5634 5634 5635 5636 5636 5637 5638 5638 5638 5638 5638 5639 5639 5640 5641 5642 5643 5645 5647 5647 5647 5647 5648 5650 5651 5652 5654 5656 5658 5660 5661 5663 5664
5589 5589 5590 5590 5590 5591 5591 5591 5591 5591 5591 5591 5591 5591 5591 5592 5593 5595 5596 5596 5596 5596 5597 5598 5600 5601 5603 5604 5604 5605 5606 5606 5605 5604 5604 5606 5609 5612 5615 5616 5615 5615 5616 5618 5619 5620 5621 5622 5624 5625 5626 5626 5627 5628 5629 5630 5631 5631 5632 5633 5634 5634 5634 5634 5634 5635 5635 5636 5637 5638 5639 5642 5643 5644 5644 5645 5646 5647 5648 5649 5651 5652 5654 5656 5657 5659
5581 5582 5582 5583 5583 5583 5583 5584 5584 5584 5585 5585 5584 5584 5584 5584 5586 5587 5587 5588 5589 5590 5590 5591 5591 5593 5595 5596 5597 5598 5599 5600 5598 5596 5596 5598 5601 5603 5606 5609 5609 5609 5610 5611 5613 5615 5616 5616 5617 5619 5620 5621 5622 5623 5624 5625 5625 5626 5627 5628 5629 5630 5630 5630 5630 5630 5630 5631 5632 5633 5635 5636 5638 5639 5641 5642 5644 5645 5645 5645 5646 5647 5649 5651 5652 5654
5574 5574 5575 5575 5575 5576 5576 5576 5577 5577 5577 5577 5577 5577 5576 5577 5578 5578 5579 5580 5581 5582 5582 5582 5584 5586 5587 5588 5589 5591 5593 5592 5591 5589 5589 5591 5592 5594 5598 5601 5602 5602 5603 5605 5607 5609 5611 5611 5611 5612 5614 5615 5616 5617 5618 5619 5620 5621 5621 5623 5624 5625 5625 5625 5625 5625 5626 5626 5627 5629 5630 5631 5632 5634 5636 5639 5641 5642 5642 5641 5641 5642 5644 5645 5647 5648
5566 5567 5567 5568 5568 5568 5568 5569 5569 5569 5570 5570 5570 5570 5569 5569 5570 5570 5570 5571 5573 5574 5573 5574 5576 5578 5578 5579 5581 5583 5585 5585 5583 5581 5581 5582 5583 5585 5589 5592 5593 5594 5596 5597 5600 5602 5605 5606 5606 5606 5607 5608 5610 5611 5612 5613 5614 5615 5616 5617 5618 5619 5620 5620 5621 5621 5621 5622 5623 5624 5625 5626 5627 5628 5630 5633 5636 5637 5638 5637 5637 5637 5638 5640 5641 5643
5559 5560 5560 5560 5560 5560 5561 5561 5561 5561 5562 5562 5562 5562 5561 5562 5562 5562 5562 5563 5564 5565 5565 5566 5568 5569 5570 5571 5572 5574 5576 5578 5577 5575 5573 5573 5574 5576 5581 5584 5584 5585 5588 5589 5591 5593 5597 5600 5601 5601 5600 5601 5603 5605 5606 5607 5608 5608 5609 5611 5612 5613 5614 5615 5616 5616 5616 5617 5618 5619 5620 5621 5622 5623 5625 5626 5629 5631 5633 5633 5633 5632 5633 5634 5636 5638
5551 5552 5552 5552 5552 5553 5553 5553 5553 5553 5553 5554 5554 5554 5554 5554 5554 5554 5554 5554 5555 5556 5557 5558 5559 5560 5561 5562 5563 5565 5566 5569 5570 5568 5565 5564 5565 5567 5572 5574 5574 5576 5579 5581 5581 5583 5587 5592 5596 5596 5595 5595 5596 5598 5599 5601 5601 5602 5603 5604 5606 5607 5608 5609 5610 5611 5612 5612 5613 5614 5615 5616 5617 5618 5619 5620 5622 5625 5627 5628 5628 5627 5628 5629 5631 5632
5544 5544 5544 5544 5545 5545 5545 5545 5545 5545 5545 5546 5546 5546 5546 5546 5545 5545 5545 5546 5546 5546 5548 5549 5550 5551 5553 5554 5555 5556 5558 5560 5561 5559 5556 5556 5556 5559 5562 5565 5565 5566 5569 5571 5572 5574 5576 5581 5586 5590 5590 5590 5590 5591 5592 5594 5595 5596 5596 5597 5599 5600 5602 5603 5604 5605 5606 5607 5608 5608 5609 5610 5611 5613 5614 5615 5616 5618 5620 5622 5622 5622 5623 5624 5625 5627
5535 5536 5536 5536 5536 5536 5536 5536 5536 5536 5537 5537 5537 5537 5537 5537 5537 5537 5537 5536 5537 5537 5538 5539 5540 5541 5543 5544 5546 5547 5550 5551 5551 5550 5548 5548 5548 5550 5552 5555 5556 5557 5558 5561 5562 5564 5566 5571 5575 5580 5583 5584 5585 5585 5586 5587 5588 5589 5590 5591 5592 5593 5595 5597 5598 5599 5600 5601 5602 5603 5604 5605 5606 5607 5608 5609 5611 5612 5613 5616 5617 5618 5618 5619 5620 5621
5527 5527 5527 5527 5528 5528 5528 5528 5528 5528 5528 5528 5528 5528 5528 5528 5528 5528 5528 5528 5528 5528 5528 5529 5530 5531 5533 5534 5536 5538 5541 5543 5542 5541 5540 5540 5540 5540 5542 5546 5547 5547 5548 5550 5552 5554 5556 5560 5564 5568 5572 5575 5578 5580 5580 5580 5580 5581 5583 5584 5585 5586 5588 5590 5591 5592 5594 5596 5597 5597 5598 5599 5600 5601 5602 5604 5605 5606 5607 5609 5611 5612 5613 5614 5615 5617
5518 5519 5519 5519 5519 5519 5519 5519 5519 5519 5519 5519 5519 5519 5519 5519 5519 5519 5519 5519 5519 5519 5519 5519 5520 5521 5522 5524 5526 5528 5530 5532 5533 5533 5532 5531 5530 5531 5533 5536 5537 5538 5538 5540 5541 5543 5546 5548 5552 5557 5561 5565 5569 5573 5574 5574 5574 5575 5576 5577 5578 5579 5581 5583 5584 5586 5587 5589 5591 5591 5592 5593 5594 5595 5596 5597 5599 5600 5601 5603 5605 5606 5608 5610 5611 5612
5510 5510 5510 5510 5510 5510 5510 5510 5510 5510 5510 5510 5509 5509 5510 5510 5510 5510 5510 5509 5509 5509 5509 5509 5510 5510 5511 5513 5515 5517 5519 5521 5523 5524 5523 5521 5521 5521 5523 5525 5526 5528 5530 5530 5531 5532 5535 5537 5541 5546 5550 5554 5557 5561 5565 5567 5568 5568 5569 5570 5571 5572 5574 5576 5577 5578 5580 5582 5584 5585 5586 5587 5588 5589 5590 5591 5592 5594 5595 5597 5598 5600 5602 5604 5606 5607
5501 5501 5501 5501 5501 5501 5501 5501 5500 5500 5500 5500 5500 5500 5500 5500 5500 5500 5500 5500 5499 5499 5499 5499 5499 5500 5501 5502 5504 5506 5508 5510 5512 5513 5513 5512 5511 5512 5513 5514 5516 5518 5521 5520 5520 5521 5525 5527 5530 5534 5538 5542 5546 5550 5555 5558 5561 5561 5561 5562 5564 5566 5567 5569 5570 5571 5573 5575 5577 5579 5580 5581 5581 5582 5584 5585 5586 5588 5589 5591 5592 5594 5596 5597 5599 5601
5491 5492 5492 5492 5491 5491 5491 5491 5491 5490 5490 5490 5491 5490 5490 5490 5490 5490 5490 5489 5489 5489 5489 5488 5488 5489 5490 5491 5492 5494 5496 5499 5501 5502 5502 5501 5501 5502 5502 5503 5505 5507 5509 5510 5510 5512 5514 5516 5519 5522 5526 5530 5534 5539 5543 5547 5550 5552 5554 5556 5558 5560 5561 5561 5562 5564 5565 5567 5570 5572 5574 5575 5575 5576 5577 5579 5580 5582 5583 5585 5586 5588 5590 5591 5593 5596
5482 5483 5483 5482 5482 5482 5482 5482 5481 5480 5480 5481 5481 5480 5480 5480 5480 5480 5479 5479 5478 5478 5478 5477 5477 5478 5479 5480 5481 5483 5485 5487 5489 5490 5491 5491 5491 5491 5491 5492 5494 5496 5498 5499 5500 5502 5503 5505 5507 5511 5515 5518 5522 5527 5531 5535 5538 5541 5544 5549 5552 5553 5553 5553 5555 5556 5558 5560 5562 5565 5566 5568 5569 5570 5571 5572 5574 5575 5576 5578 5580 5582 5584 5586 5587 5589
5473 5473 5473 5472 5472 5472 5472 5472 5471 5470 5470 5471 5471 5471 5470 5470 5470 5469 5469 5468 5468 5467 5467 5466 5466 5466 5467 5468 5469 5471 5473 5475 5476 5478 5479 5480 5480 5480 5481 5481 5482 5483 5485 5487 5489 5491 5492 5494 5496 5499 5503 5507 5511 5514 5518 5523 5527 5530 5533 5538 5542 5544 5545 5547 5549 5550 5551 5552 5555 5556 5558 5561 5562 5563 5564 5565 5566 5568 5570 5572 5574 5576 5578 5580 5581 5583
5463 5463 5462 5462 5462 5462 5462 5461 5461 5460 5460 5460 5460 5460 5460 5459 5458 5458 5458 5457 5457 5456 5456 5455 5455 5455 5455 5456 5457 5459 5461 5462 5464 5465 5466 5467 5467 5467 5468 5469 5470 5471 5472 5474 5476 5479 5481 5483 5485 5488 5491 5495 5498 5501 5506 5511 5516 5519 5522 5526 5530 5533 5538 5543 5544 5543 5542 5544 5546 5548 5550 5553 5555 5556 5557 5558 5560 5561 5563 5566 5568 5570 5572 5574 5576 5577
5453 5452 5452 5452 5452 5451 5451 5451 5450 5450 5449 5448 5448 5449 5448 5447 5446 5446 5446 5445 5445 5445 5444 5444 5443 5443 5443 5444 5446 5447 5448 5450 5451 5451 5452 5453 5454 5455 5456 5456 5457 5458 5459 5461 5464 5466 5468 5471 5473 5476 5479 5482 5485 5488 5494 5499 5504 5508 5511 5514 5516 5522 5529 5534 5535 5534 5534 5536 5538 5540 5543 5545 5547 5548 5550 5552 5553 5555 5557 5559 5561 5563 5565 5567 5569 5571
5442 5442 5441 5441 5441 5441 5440 5440 5439 5438 5437 5437 5437 5437 5436 5435 5434 5433 5433 5433 5432 5431 5431 5431 5431 5430 5431 5432 5433 5434 5435 5436 5438 5438 5438 5439 5440 5440 5441 5443 5444 5445 5446 5448 5451 5453 5455 5458 5461 5465 5466 5468 5471 5476 5481 5486 5492 5497 5500 5502 5505 5509 5516 5520 5523 5526 5529 5530 5531 5532 5535 5536 5538 5540 5543 5546 5547 5549 5550 5552 5554 5556 5558 5560 5562 5565
5432 5431 5431 5431 5430 5430 5430 5429 5428 5427 5426 5426 5426 5425 5424 5423 5421 5421 5420 5420 5419 5419 5418 5418 5417 5417 5418 5419 5419 5420 5421 5423 5424 5424 5424 5424 5425 5426 5426 5427 5429 5430 5431 5433 5436 5438 5440 5444 5448 5451 5452 5454 5458 5464 5469 5473 5479 5484 5489 5491 5494 5497 5501 5506 5512 5519 5523 5523 5523 5524 5526 5527 5529 5532 5536 5539 5541 5542 5543 5545 5546 5549 5551 5553 5556 5558
5422 5421 5421 5420 5420 5419 5419 5418 5417 5416 5415 5415 5414 5413 5412 5411 5410 5409 5408 5407 5406 5406 5406 5404 5404 5404 5406 5406 5406 5406 5407 5410 5411 5410 5410 5410 5411 5411 5411 5412 5413 5414 5416 5417 5420 5422 5425 5429 5432 5435 5438 5441 5446 5451 5455 5459 5465 5471 5476 5480 5483 5485 5488 5492 5500 5507 5511 5513 5514 5516 5518 5519 5521 5525 5528 5531 5533 5535 5536 5538 5540 5542 5544 5546 5548 5551
5412 5411 5410 5410 5409 5408 5408 5407 5406 5405 5405 5404 5403 5401 5400 5399 5398 5397 5396 5395 5394 5394 5394 5393 5392 5392 5392 5393 5392 5393 5394 5396 5396 5396 5397 5397 5398 5398 5397 5397 5398 5399 5401 5402 5405 5407 5410 5413 5416 5420 5423 5427 5432 5436 5440 5445 5451 5457 5463 5467 5471 5474 5477 5481 5486 5492 5496 5501 5505 5508 5509 5511 5513 5517 5520 5522 5525 5528 5531 5532 5534 5535 5537 5539 5541 5544
5402 5401 5401 5400 5399 5398 5397 5396 5395 5394 5394 5393 5392 5391 5389 5388 5388 5387 5386 5384 5383 5383 5383 5382 5381 5381 5380 5381 5381 5381 5382 5383 5383 5384 5385 5386 5386 5386 5386 5385 5385 5386 5387 5389 5391 5393 5396 5398 5401 5405 5409 5413 5416 5420 5424 5431 5437 5443 5448 5452 5457 5462 5466 5469 5473 5477 5481 5488 5494 5498 5501 5503 5505 5507 5510 5513 5517 5521 5524 5526 5528 5529 5531 5532 5534 5536
5393 5392 5391 5389 5388 5387 5387 5386 5385 5384 5384 5383 5382 5381 5380 5379 5378 5377 5377 5375 5374 5373 5372 5372 5371 5371 5371 5371 5371 5371 5372 5372 5373 5374 5375 5376 5376 5376 5376 5375 5375 5375 5376 5377 5378 5380 5382 5385 5388 5392 5396 5399 5402 5405 5410 5416 5422 5427 5431 5436 5442 5449 5454 5457 5460 5464 5468 5474 5481 5486 5491 5494 5496 5498 5500 5505 5509 5513 5516 5519 5522 5523 5525 5526 5527 5529
5384 5383 5381 5380 5379 5378 5377 5376 5375 5375 5374 5373 5372 5371 5371 5370 5369 5368 5367 5366 5365 5365 5364 5363 5363 5362 5362 5362 5362 5363 5363 5363 5363 5364 5365 5366 5366 5366 5366 5366 5366 5366 5366 5367 5368 5369 5371 5374 5376 5380 5384 5387 5390 5393 5397 5401 5406 5411 5416 5421 5428 5434 5439 5443 5448 5453 5457 5461 5466 5472 5479 5483 5486 5489 5492 5497 5501 5504 5508 5512 5515 5517 5519 5520 5521 5522
5376 5375 5373 5371 5370 5369 5368 5367 5366 5366 5365 5365 5364 5363 5363 5362 5361 5361 5360 5359 5358 5357 5356 5356 5355 5355 5355 5355 5355 5355 5355 5355 5356 5356 5357 5357 5358 5358 5358 5358 5358 5358 5358 5358 5359 5360 5362 5364 5366 5369 5373 5377 5380 5382 5384 5387 5391 5396 5401 5407 5413 5418 5424 5429 5436 5441 5445 5447 5451 5458 5465 5472 5476 5480 5484 5488 5491 5495 5499 5504 5508 5511 5512 5513 5515 5516